Weather History for Kingman, AZ

Change the Weather History Date:

Wednesday, January 2, 2013

  Actual Average Record
Temperature  
Mean Temperature 36 °F 42 °F  
Max Temperature 50 °F 54 °F 77 °F (1918)
Min Temperature 22 °F 31 °F 9 °F (1907)
Degree Days  
Heating Degree Days 29 22  
Month to date heating degree days 64 45  
Since 1 July heating degree days 1145 1294  
Cooling Degree Days 0 0  
Month to date cooling degree days 0 0  
Year to date cooling degree days 0 0  
Moisture  
Dew Point 11 °F    
Average Humidity 42    
Maximum Humidity 65    
Minimum Humidity 19    
Precipitation  
Precipitation 0.00 in 0.02 in 0.31 in (1934)
Month to date precipitation 0.00 0.05  
Year to date precipitation 0.00 0.05  
Sea Level Pressure  
Sea Level Pressure 30.08 in    
Wind  
Wind Speed 10 mph (NE)    
Max Wind Speed 15 mph    
Max Gust Speed 17 mph    
Visibility 10 miles    
Events      
T = Trace of Precipitation, MM = Missing Value Source: NWS Daily Summary

Daily Weather History Graph

Daily Weather History Graph

Search for Another Location

Airport:

Trip Planner

Search our weather history database for the weather conditions in past years. The results will help you decide how hot, cold, wet, or windy it might be!

Date:

Astronomy

Jan. 02, 2013 Rise Set
Actual Time 7:44 AM MST 5:35 PM MST
Civil Twilight 7:16 AM MST 6:03 PM MST
Nautical Twilight 6:44 AM MST 6:35 PM MST
Astronomical Twilight 6:14 AM MST 7:06 PM MST
Moon 10:58 PM MST (1/2) 10:40 AM MST (1/2)
Length of Visible Light 10h 47m
Length of Day
9h 50m
Waning Gibbous, 74% of the Moon is Illuminated
Jan 2
Waning Gibbous
Jan 4
Last Quarter
Jan 11
New
Jan 18
First Quarter
Jan 26
Full

Hourly Weather History & Observations

Time (MST) Temp. Windchill Dew Point Humidity Pressure Visibility Wind Dir Wind Speed Gust Speed Precip Events Conditions
12:51 AM 25.0 °F 19.3 °F 12.0 °F 58% 30.22 in 10.0 mi NE 4.6 mph - N/A   Clear
1:51 AM 26.1 °F 15.0 °F 12.0 °F 55% 30.20 in 10.0 mi NE 12.7 mph - N/A   Clear
2:51 AM 27.0 °F 19.5 °F 12.0 °F 53% 30.20 in 10.0 mi ENE 6.9 mph - N/A   Clear
3:51 AM 23.0 °F 12.4 °F 12.0 °F 63% 30.19 in 10.0 mi NE 10.4 mph - N/A   Clear
4:51 AM 26.1 °F 17.6 °F 12.0 °F 55% 30.17 in 10.0 mi East 8.1 mph - N/A   Clear
5:51 AM 24.1 °F 18.2 °F 12.0 °F 60% 30.18 in 10.0 mi ESE 4.6 mph - N/A   Clear
6:51 AM 26.1 °F 20.5 °F 12.0 °F 55% 30.19 in 10.0 mi North 4.6 mph - N/A   Clear
7:51 AM 25.0 °F 12.6 °F 12.0 °F 58% 30.19 in 10.0 mi NE 15.0 mph - N/A   Clear
8:51 AM 28.9 °F 23.9 °F 12.9 °F 51% 30.19 in 10.0 mi SE 4.6 mph - N/A   Unknown
9:51 AM 35.6 °F 28.6 °F 12.2 °F 38% 30.19 in 10.0 mi NNE 9.2 mph - N/A   Clear
10:51 AM 39.0 °F 30.3 °F 10.9 °F 32% 30.16 in 10.0 mi North 16.1 mph - N/A   Clear
12:51 PM 46.0 °F 40.6 °F 9.0 °F 22% 29.98 in 10.0 mi North 11.5 mph 20.7 mph N/A   Clear
1:51 PM 48.0 °F - 9.0 °F 21% 29.95 in 10.0 mi NNE 11.5 mph 19.6 mph N/A   Clear
2:51 PM 48.9 °F - 9.0 °F 20% 29.93 in 10.0 mi NNE 8.1 mph - N/A   Clear
3:51 PM 48.0 °F - 8.1 °F 20% 29.95 in 10.0 mi North 17.3 mph 23.0 mph N/A   Unknown
4:51 PM 45.0 °F 39.7 °F 10.0 °F 24% 29.95 in 10.0 mi NNE 10.4 mph - N/A   Clear
5:51 PM 36.0 °F 29.0 °F 10.9 °F 36% 29.99 in 10.0 mi ENE 9.2 mph - N/A   Unknown
6:51 PM 34.0 °F 25.5 °F 12.0 °F 40% 29.98 in 10.0 mi East 11.5 mph - N/A   Clear
7:51 PM 33.1 °F 25.5 °F 12.0 °F 42% 30.00 in 10.0 mi East 9.2 mph - N/A   Clear
8:51 PM 30.9 °F 23.5 °F 12.9 °F 47% 30.01 in 10.0 mi East 8.1 mph - N/A   Clear
9:51 PM 30.9 °F 24.3 °F 12.9 °F 47% 30.01 in 10.0 mi East 6.9 mph - N/A   Clear
10:51 PM 30.0 °F 24.1 °F 12.0 °F 47% 30.00 in 10.0 mi ENE 5.8 mph - N/A   Clear
11:51 PM 30.9 °F 20.2 °F 12.9 °F 47% 30.15 in 10.0 mi North 15.0 mph - N/A   Clear